Location: Ar Ranvel
(48.3000°N, 4.8833°W)
Time: 19:57:07
(UTC+00:00)

Envisat - Visible Passes

Search period start: 24 September 2021 00:00
Search period end: 04 October 2021 00:00
Orbit: 764 x 766 km, 98.2° (Epoch: 23 September)

Date Brightness Start Highest point End Pass type
(mag) Time Alt. Az. Time Alt. Az. Time Alt. Az.
24 Sep 5.4 04:36:25 10° NE 04:40:33 25° E 04:44:40 10° SSE visible
25 Sep 6.1 04:01:25 10° ENE 04:03:14 12° E 04:05:03 10° ESE visible
26 Sep 4.5 05:01:19 10° NNE 05:06:06 40° E 05:10:51 10° SSE visible
27 Sep 5.7 04:25:14 10° NE 04:28:55 20° E 04:32:36 10° SE visible
28 Sep 3.5 05:26:27 10° NNE 05:31:32 67° ESE 05:36:35 10° S visible
29 Sep 4.9 04:49:56 10° NNE 04:54:31 32° E 04:59:03 10° SSE visible
30 Sep 5.9 04:14:10 10° NE 04:17:17 16° E 04:20:21 10° SE visible
01 Oct 3.9 05:15:00 10° NNE 05:20:00 53° E 05:24:57 10° S visible
02 Oct 5.3 04:38:39 10° NE 04:42:54 26° E 04:47:08 10° SSE visible
03 Oct 6.1 04:03:23 10° ENE 04:05:36 13° E 04:07:49 10° ESE visible
03 Oct 3.1 05:40:15 10° NNE 05:45:23 87° ESE 05:50:28 10° SSW visible
